Location: Rounton
(54.4000°N, 1.3500°W)
Time: 01:32:27
(UTC+00:00)

Vanguard 3 - Pass Details

Date: 08 December 2021
Orbit: 508 x 3260 km, 33.3° (Epoch: 19 January)

Event Time Altitude Azimuth Distance (km) Brightness Sun altitude
Exits shadow 03:51:31 27° 205° (SSW) 4,868 10.7 -36.5°
Maximum altitude 03:59:13 35° 171° (S) 4,358 10.7 -35.4°
Drops below altitude 10° 04:13:53 10° 115° (ESE) 5,431 12.0 -33.2°
Sets 04:18:02 0° 107° (ESE) 6,122 12.5 -32.6°
